sat.trackr.live / text

‹ back to catalog

STARLINK-33560

NORAD 62282 · 2024-237R

PAYLOAD ACTIVE UNKNOWN

§ Identity

Operator
Country
US
Launch date
2024-12-08
Launch site
AFETR
Launch vehicle
Mass (kg)
RCS (m²)

Purposes: comms

External: N2YO · Heavens-Above · Gunter

§ Orbital elements

Epoch: 2026-09-21T04:56:46.139712Z

Period
94.27 min
Inclination
43.0010°
Eccentricity
0.0001207
Mean motion
15.27583651 rev/d
Perigee alt
482.2 km
Apogee alt
483.9 km
Semi-major
6,861.2 km
B*
3.0968e-4
RAAN
192.1854°
Arg perigee
280.5989°
Mean anomaly
79.4727°
Rev number
10,100

§ Raw data

STARLINK-335601 62282U 24237R   26264.20608958  .00008270  00000+0  30968-3 0  99912 62282  43.0010 192.1854 0001207 280.5989  79.4727 15.27583651101002

JSON: /api/v1/satellites/62282 · /tle

For live sub-satellite position, see the globe view (requires WebGL).

§ Visibility from observer

Set your observer location to see the next 7 days of passes ≥ 10°. The values pass through the URL so the page stays shareable.

No JS? Fill the form by hand. The geolocation button needs JavaScript.